Antoine Wiels

Antoine Wiels

Statistiques 2026

  • Courses courues : 91
  • Nb de victoires : 24
  • Nb de places : 51
  • Écart gagnant : -
  • Réussite à la gagne : 26%
  • Réussite à la place : 56%
Musique : 1a 3a 0a 3a 0a 0a 3a 5a Da Da 7a Da 3a 7a Da 1a 8a 1a
DateRangCatégorieAlloc.Dist.HippodromeChevalRed. KmSpé.
08/01/15 D Trot 20 000€ 3 025m Nantes Violette du Bois Monté
11/01/15 D Trot 20 000€ 3 025m Chateaubriant Ursula Bella Attelé
02/02/15 D Trot 20 000€ 2 400m Chateaubriant Biesolo Magic Monté
08/02/15 0 Mixte 20 000€ 2 875m Maure De Bretagne Azalee Dodienville Attelé
12/02/15 D Trot 20 000€ 2 425m Angers Brasero Bello Monté
12/02/15 D Trot 20 000€ 2 425m Angers Ballerine du Bois Monté
13/02/15 D Trot 20 000€ 2 700m Graignes Belucinda Monté
15/02/15 6 Trot 20 000€ 2 825m Pontchateau Ursula Bella 1'16"1 Attelé
22/02/15 D Trot 20 000€ 3 000m Nantes Univers du Lupin Attelé
01/03/15 2 Mixte 20 000€ 2 575m Saint Brieuc Verseau d'Anpierre 1'17"4 Attelé
05/03/15 D Trot 20 000€ 2 875m Laval Univers du Lupin Monté lire

Jamais en bonne position, a été sanctionné dans le tournant final.

09/03/15 8 Trot 20 000€ 2 675m Bordeaux Le Bouscat Ursula Bella 1'17"0 Attelé
09/03/15 3 Trot 20 000€ 2 650m Bordeaux Le Bouscat Baraka d'Azur 1'17"2 Attelé
16/03/15 D Trot 20 000€ 2 450m Caen Vodinara Monté
21/03/15 4 Trot 20 000€ 2 700m Graignes Baraka d'Azur 1'18"1 Attelé
22/03/15 2 Mixte 20 000€ 3 200m Fougeres Ultreia Brissonais Monté
28/03/15 D Trot 20 000€ 2 875m Laval Beauvallon Gede Monté
29/03/15 D Trot 20 000€ 2 750m Lisieux Vahine de Felliere Attelé
01/04/15 8 Trot 20 000€ 3 125m Angers Ascot Menuet 1'18"0 Attelé lire

Rapidement à la pointe du combat, a été progressivement dominé depuis la sortie du tournant final.

17/04/15 8 Trot 20 000€ 2 950m Saint Malo Ubella de Regen 1'18"5 Monté
20/04/15 D Trot 20 000€ 2 850m Maure De Bretagne Bagatelle de Prez Monté
20/04/15 1 Trot 20 000€ 2 850m Maure De Bretagne Boss de Sarthe 1'19"5 Monté
20/04/15 D Trot 20 000€ 2 850m Maure De Bretagne Brazilio Bello Attelé
26/04/15 D Mixte 20 000€ 3 225m Vannes Uriano d'hameline Attelé
28/04/15 1 Trot 20 000€ 2 700m Graignes Bon Coeur du Lupin 1'18"0 Attelé
29/04/15 2 Trot 20 000€ 2 950m Le Mans Baroudeur d'Anjou 1'16"7 Monté
02/05/15 3 Trot 20 000€ 2 550m Bordeaux Le Bouscat Uriano d'hameline 1'15"5 Attelé
22/05/15 3 Trot 20 000€ 2 800m Pontchateau Adjar In Blue 1'16"6 Attelé
22/05/15 0 Trot 20 000€ 2 800m Pontchateau Teila Monté
26/05/15 2 Trot 20 000€ 2 200m Vichy Colombo Bello 1'22"0 Monté
28/05/15 D Trot 20 000€ 2 800m Cholet Banquiere Magic Attelé
31/05/15 D Trot 20 000€ 2 825m Rambouillet Tout Petit Cosse Monté
31/05/15 D Trot 20 000€ 2 825m Rambouillet Ursula Bella Attelé
03/06/15 5 Trot 20 000€ 2 875m Laval Aventurier Cehere 1'16"4 Monté lire

En deuxième position au dernier passage en face, a très nettement accusé le coup dans la phase finale.

12/06/15 D Trot 20 000€ 2 875m Laval Boss de Sarthe Monté
13/06/15 4 Trot 20 000€ 2 575m Saint Brieuc Vigo du Guillaumas 1'16"9 Monté
18/06/15 5 Trot 20 000€ 2 450m Caen Astre des Peria 1'14"7 Monté
21/06/15 D Trot 20 000€ 2 275m Nantes Ballerina Bella Attelé
21/06/15 D Trot 20 000€ 3 000m Nantes Baraka de Goele Monté
26/06/15 0 Trot 20 000€ 2 875m Laval Amie de Goel Attelé
28/06/15 D Trot 20 000€ 2 625m Savenay Vemphis des Apres Monté
28/06/15 1 Trot 20 000€ 2 625m Savenay Ugo des Yolais TNC Attelé
01/07/15 2 Trot 20 000€ 2 750m Lisieux Brazilio Bello 1'16"7 Attelé
05/07/15 D Mixte 20 000€ 3 125m La Gacilly Tempete d'hermes Attelé
11/07/15 7 Trot 20 000€ 2 650m Les Sables D'Olonne Adjar In Blue 1'16"3 Attelé
11/07/15 4 Trot 20 000€ 2 650m Les Sables D'Olonne Andrea Bella 1'17"0 Attelé
11/07/15 6 Trot 20 000€ 2 775m Les Sables D'Olonne Be Happy 1'17"9 Attelé
07/08/15 6 Trot 20 000€ 2 850m Cabourg Cristal de l'Aunay 1'19"7 Monté lire

A figuré au sein du peloton, sans jamais pouvoir changer de rythme dans la phase finale.

09/08/15 2 Trot 20 000€ 2 975m Saint Malo Velio du Lupin 1'17"5 Attelé
12/08/15 4 Trot 20 000€ 2 775m Les Sables D'Olonne Vent Glacial 1'16"1 Monté